DateTimeUTC,F1_A11,F1_S11,BsB_S11,BsG_S11,BsR_S11,BbsB_S11,BbsG_S11,BbsR_S11,BaB_A11,BaG_A11,BaR_A11,Tu_S11,T_S11,Uu_S11,U_S11,P_S11,T1_A11
2021-09-05T11:00:00Z,00000200,21000000,,,,,,,-000.34,-000.26,0000.08,18.2,25.0,01.2,00.8,0663.8,31.0
2021-09-05T11:01:00Z,00000200,21000000,,,,,,,0000.04,0000.10,0000.24,18.2,25.0,00.9,00.6,0663.8,31.0
2021-09-05T11:02:00Z,00000200,21000000,,,,,,,0000.07,-000.14,-000.41,18.2,25.1,00.9,00.6,0663.8,31.0
2021-09-05T11:03:00Z,00000200,61000000,,,,,,,0000.36,0000.44,0000.51,18.3,25.1,00.9,00.6,0663.8,31.0
2021-09-05T11:04:00Z,00000200,41000000,0002.95,0002.07,0001.37,-000.06,0000.37,0000.34,0000.78,0000.79,0000.34,18.5,25.0,01.1,00.7,0664.8,31.0
2021-09-05T11:05:00Z,00000200,01000000,0002.58,0002.08,0001.17,0001.03,0000.52,0000.03,0000.55,0000.36,0000.41,18.5,24.9,01.2,00.8,0664.8,31.0
2021-09-05T11:06:00Z,00000200,01000000,0002.94,0002.54,0001.68,-000.29,0000.46,0000.36,0000.68,0000.57,0000.50,18.5,24.9,01.1,00.8,0664.8,31.0
2021-09-05T11:07:00Z,00000200,01000000,0002.60,0002.30,0001.25,0000.34,0000.91,0000.23,0000.80,0000.74,0000.36,18.5,24.9,01.1,00.8,0664.8,31.0
2021-09-05T11:08:00Z,00000200,01000000,0002.37,0002.55,0001.42,0000.66,0000.26,0000.33,0000.58,0000.88,0000.72,18.4,24.8,01.3,00.8,0664.8,31.0
2021-09-05T11:09:00Z,00000200,01000000,0002.97,0002.29,0001.35,0000.96,0000.49,0000.45,0000.77,0000.45,0000.48,18.4,24.8,01.3,00.8,0664.7,31.0
2021-09-05T11:10:00Z,00000200,01000000,0003.29,0002.16,0001.24,-000.12,0000.30,-000.00,0000.84,0000.28,0000.39,18.4,24.8,01.3,00.9,0664.7,31.0
2021-09-05T11:11:00Z,00000200,01000000,0002.80,0002.50,0001.30,0000.54,0000.28,0000.09,0000.92,0000.97,0000.76,18.4,24.8,01.4,00.9,0664.8,31.0
2021-09-05T11:12:00Z,00000200,01000000,0002.74,0002.44,0001.56,0000.44,0000.30,0000.66,0000.58,0000.62,0000.57,18.4,24.8,01.4,00.9,0664.7,31.0
2021-09-05T11:13:00Z,00000200,01000000,0002.88,0002.57,0001.30,-000.11,0000.41,0000.44,0001.31,0000.90,0000.48,18.4,24.8,01.4,01.0,0664.7,31.0
2021-09-05T11:14:00Z,00000200,01000000,0003.10,0002.71,0001.36,-000.03,0000.57,0000.22,0000.25,0000.82,0001.04,18.5,24.8,01.5,01.0,0664.7,31.0
2021-09-05T11:15:00Z,00000200,01000000,0002.88,0002.75,0001.39,0000.77,0000.40,0000.23,0000.77,0000.57,0000.28,18.6,24.9,01.5,01.0,0664.7,31.0
2021-09-05T11:16:00Z,00000200,01000000,0002.25,0002.57,0001.19,0000.21,0000.59,0000.20,0000.77,0000.46,0000.46,18.7,24.9,01.5,01.1,0664.7,31.0
2021-09-05T11:17:00Z,00000200,01000000,0002.77,0002.01,0001.22,0000.72,0000.63,0000.42,0000.62,0000.99,0000.20,18.7,24.9,01.5,01.0,0664.7,31.0
2021-09-05T11:18:00Z,00000200,01000000,0002.51,0002.21,0001.54,-000.08,0000.42,-000.06,0000.44,0000.54,0000.65,18.7,24.9,01.4,01.0,0664.7,31.0
2021-09-05T11:19:00Z,00000200,01000000,0002.35,0002.36,0001.63,0000.11,0000.71,0000.14,0001.03,0000.44,0000.51,18.7,24.9,01.5,01.0,0664.7,31.0
2021-09-05T11:20:00Z,00000200,01000000,0002.58,0002.54,0001.56,-000.16,0000.43,-000.01,0000.41,0000.57,0000.37,18.6,24.9,01.6,01.1,0664.7,31.0
2021-09-05T11:21:00Z,00000200,01000000,0003.11,0002.30,0001.39,0000.38,0000.45,0000.38,0000.78,0000.84,0000.35,18.6,24.9,01.6,01.1,0664.7,31.0
2021-09-05T11:22:00Z,00000200,01000000,0002.66,0002.37,0001.42,0000.42,0000.33,0000.33,0000.82,0000.20,0000.78,18.6,24.9,01.7,01.1,0664.7,31.0
2021-09-05T11:23:00Z,00000200,01000000,0003.48,0002.66,0001.60,0000.74,0000.59,0000.42,0000.76,0000.99,0000.35,18.5,24.8,01.6,01.1,0664.7,31.0
2021-09-05T11:24:00Z,00000200,01000000,0003.45,0002.26,0001.48,0000.30,0000.26,0000.37,0000.93,0000.76,0001.07,18.5,24.8,01.8,01.2,0664.6,31.0
2021-09-05T11:25:00Z,00000200,00000000,0002.81,0001.92,0001.45,0000.26,0000.45,0000.26,0000.34,0000.50,0000.25,18.5,24.8,01.8,01.2,0664.6,31.0
2021-09-05T11:26:00Z,00000200,01000000,0002.74,0002.19,0001.35,0000.61,0000.37,0000.25,0000.91,0000.73,0000.48,18.4,24.8,01.8,01.3,0664.6,31.0
2021-09-05T11:27:00Z,00000200,01000000,0002.12,0002.21,0001.25,0000.28,0000.60,0000.10,0000.77,0000.88,0000.59,18.4,24.8,01.8,01.2,0664.7,31.0
2021-09-05T11:28:00Z,00000200,01000000,0002.28,0002.13,0001.63,0001.15,0000.63,0000.40,0001.06,0000.56,0000.95,18.5,24.8,01.9,01.3,0664.7,31.0
2021-09-05T11:29:00Z,00000200,00000000,0003.48,0002.29,0001.12,0000.35,0000.24,0000.21,0000.48,0001.14,0000.22,18.6,24.8,01.9,01.3,0664.7,31.0
2021-09-05T11:30:00Z,00000200,00000000,0002.55,0002.29,0001.63,-000.10,0000.41,0000.36,0000.35,0000.11,0000.39,18.7,24.9,01.9,01.3,0664.7,31.0
2021-09-05T11:31:00Z,00000200,00000000,0003.39,0002.04,0001.58,0000.72,0000.24,0000.24,0001.02,0000.56,0000.45,18.8,25.0,01.9,01.3,0664.7,31.0
2021-09-05T11:32:00Z,00000200,01000000,0003.30,0002.44,0001.16,0000.74,0000.44,0000.12,0000.49,0000.69,0000.46,18.8,25.0,01.9,01.3,0664.6,31.0
2021-09-05T11:33:00Z,00000200,00000000,0002.47,0002.19,0001.21,0000.16,0000.50,0000.16,0000.87,0000.76,0000.69,18.8,25.0,02.0,01.3,0664.6,31.0
2021-09-05T11:34:00Z,00000200,00000000,0002.98,0002.54,0001.38,0000.05,0000.51,0000.69,0000.51,0000.60,0000.14,18.8,25.0,02.0,01.4,0664.6,31.0
2021-09-05T11:35:00Z,00000200,00000000,0002.91,0002.10,0001.30,0000.69,0000.43,0000.06,0000.83,0000.74,0000.90,18.8,25.0,02.0,01.4,0664.6,31.0
2021-09-05T11:36:00Z,00000200,00000000,0002.76,0002.35,0001.63,0001.31,0000.29,0000.59,0000.64,0000.71,0000.22,18.7,25.0,02.1,01.4,0664.6,31.0
2021-09-05T11:37:00Z,00000200,00000000,0002.58,0002.24,0001.41,0000.41,0000.67,0000.05,0000.88,0000.46,0000.72,18.7,24.9,02.2,01.5,0664.6,31.0
2021-09-05T11:38:00Z,00000200,00000000,0003.30,0002.76,0001.52,0000.32,0000.60,0000.09,0000.55,0000.77,0000.53,18.6,24.9,02.2,01.5,0664.5,31.0
2021-09-05T11:39:00Z,00000200,00000000,0002.34,0002.11,0001.17,0000.63,0000.49,0000.38,0000.52,0000.47,0000.38,18.6,24.9,02.2,01.5,0664.6,31.0
2021-09-05T11:40:00Z,00000200,00000000,0002.63,0002.55,0001.19,0000.28,0000.54,0000.33,0001.04,0000.74,0000.43,18.6,24.9,02.3,01.6,0664.5,31.0
2021-09-05T11:41:00Z,00000200,00000000,0003.13,0002.17,0001.63,0000.55,0000.19,0000.17,0000.60,0000.80,0000.83,18.6,24.8,02.4,01.6,0664.5,31.0
2021-09-05T11:42:00Z,00000200,00000000,0002.74,0002.50,0001.11,0000.30,0000.41,0000.18,0001.07,0000.46,0000.65,18.5,24.8,02.4,01.7,0664.5,31.0
2021-09-05T11:43:00Z,00000200,00000000,0002.82,0002.11,0001.63,0000.46,0000.50,0000.42,0000.73,0001.39,0000.57,18.6,24.9,02.5,01.7,0664.6,31.0
2021-09-05T11:44:00Z,00000200,00000000,0003.20,0002.48,0001.07,0000.47,0000.52,0000.18,0000.79,0000.18,0000.52,18.7,24.9,02.6,01.8,0664.6,31.0
2021-09-05T11:45:00Z,00000200,00000000,0003.24,0002.43,0001.37,0000.43,0000.09,0000.17,0000.75,0000.87,0000.50,18.8,25.0,02.6,01.8,0664.6,31.0
2021-09-05T11:46:00Z,00000200,00000000,0003.35,0002.65,0001.64,-000.20,0000.53,0000.21,0000.88,0000.60,0000.43,18.9,25.0,02.8,01.9,0664.6,31.0
2021-09-05T11:47:00Z,00000200,00000000,0002.60,0002.38,0001.70,0000.02,0000.48,0000.39,0000.59,0000.51,0000.60,18.9,25.0,02.9,02.0,0664.5,31.0
2021-09-05T11:48:00Z,00000200,00000000,0001.95,0002.38,0001.22,0000.12,0000.52,0000.34,0000.39,0000.62,0000.35,18.9,25.1,02.8,01.9,0664.5,31.0
2021-09-05T11:49:00Z,00000200,00000000,0002.93,0002.73,0001.68,-000.17,0000.60,0000.32,0001.17,0000.62,0000.86,18.9,25.0,02.9,02.0,0664.5,31.0
2021-09-05T11:50:00Z,00000200,00000000,0003.16,0002.61,0001.31,0000.45,0000.54,0000.29,0000.25,0000.90,0000.43,18.8,25.0,02.9,02.0,0664.5,31.0
2021-09-05T11:51:00Z,00000200,00000000,0002.15,0002.05,0001.33,0000.37,0000.19,0000.43,0000.46,0000.32,-000.05,18.8,25.0,02.8,02.0,0664.5,31.0
2021-09-05T11:52:00Z,00000200,00000000,0003.02,0002.36,0001.68,0000.27,0000.80,0000.30,0000.40,0000.61,0000.36,18.8,25.0,02.9,02.0,0664.5,31.0
2021-09-05T11:53:00Z,00000200,00000000,0002.97,0002.30,0001.76,0000.29,0000.41,0000.47,0000.70,0000.44,0000.45,18.7,25.0,02.8,01.9,0664.5,31.0
2021-09-05T11:54:00Z,00000200,00000000,0002.67,0002.64,0000.97,-000.05,0000.38,0000.28,0000.75,0000.98,0000.78,18.7,24.9,02.8,01.9,0664.5,31.0
2021-09-05T11:55:00Z,00000200,00000000,0002.79,0002.42,0001.77,0000.75,0000.71,0000.28,0000.54,-000.03,0000.04,18.7,24.9,02.9,02.0,0664.5,31.0
2021-09-05T11:56:00Z,00000200,00000000,0002.67,0002.15,0001.14,0000.22,0000.34,0000.21,0001.05,0000.71,0000.70,18.6,24.9,02.9,02.0,0664.5,31.0
2021-09-05T11:57:00Z,00000200,40000000,,,,,,,-000.52,-000.17,0000.00,18.7,25.0,03.2,02.2,0664.5,31.0
2021-09-05T11:58:00Z,00000200,60000000,,,,,,,0000.33,0000.18,0000.47,18.4,25.0,02.5,01.7,0663.5,31.0
2021-09-05T11:59:00Z,00000200,20000000,,,,,,,0000.25,0000.45,-000.07,18.5,25.1,02.6,01.7,0663.5,31.0
